sat.trackr.live / text

‹ back to catalog

STARLINK-6253

NORAD 57083 · 2023-088AM

PAYLOAD ACTIVE UNKNOWN

§ Identity

Operator
Country
US
Launch date
2023-06-22
Launch site
AFWTR
Launch vehicle
Mass (kg)
RCS (m²)

Purposes: comms

External: N2YO · Heavens-Above · Gunter

§ Orbital elements

Epoch: 2026-05-25T00:29:09.922272Z

Period
94.27 min
Inclination
43.0030°
Eccentricity
0.0001230
Mean motion
15.27577742 rev/d
Perigee alt
482.2 km
Apogee alt
483.9 km
Semi-major
6,861.2 km
B*
3.2752e-5
RAAN
25.0839°
Arg perigee
271.1211°
Mean anomaly
88.9500°
Rev number
16,217

§ Raw data

STARLINK-62531 57083U 23088AM  26145.02025373  .00000639  00000+0  32752-4 0  99942 57083  43.0030  25.0839 0001230 271.1211  88.9500 15.27577742162177

JSON: /api/v1/satellites/57083 · /tle

For live sub-satellite position, see the globe view (requires WebGL).

§ Visibility from observer

Set your observer location to see the next 7 days of passes ≥ 10°. The values pass through the URL so the page stays shareable.

No JS? Fill the form by hand. The geolocation button needs JavaScript.